Flag for Uzbekistan Weather past 2 weeks in Tashkent, Uzbekistan

Now
79 °F

Clear.


Feels Like: 78 °F
Forecast: 73 / 89 °F
Wind: 8 mph from North

Location: Tashkent

Current Time: Jul 24, 2014 at 4:10:31 AM

Latest Report: Jul 24, 2014 at 3:30 AM


Visibility: 10 mi

Pressure: 29.80 "Hg

Humidity: 20%

Dew point: 34 °F

Location of TashkentLocation

Historic Weather in Tashkent — Graph

°F

Tashkent temperature yesterday

Maximum temperature yesterday: 97 °F (at 2:30 PM)
Minimum temperature yesterday: 73 °F (at 4:00 AM)
Average temperature yesterday: 85 °F

Past Weeks' High & Low Weather Summary

 TemperatureHumidityPressure
High104 °F (Jul 11, 2:30 PM)49% (Jul 17, 5:00 AM)29.86 "Hg (Jul 17, 5:00 AM)
Low64 °F (Jul 17, 4:00 AM)8% (Jul 15, 1:30 PM)29.59 "Hg (Jul 9, 2:30 AM)
Average84 °F22%29.72 "Hg
* Reported Jul 9 2:00 AM — Jul 24 2:30 AM, Tashkent, Weather by CustomWeather, © 2014

Note: Actual official high and low records may vary slightly from our data, if they occured in-between our weather recording intervals... More about our weather records

Advertising

Tashkent weather history for previous 24 hours

 ConditionsComfort  
Time TempWeatherWind HumidityBarometerVisibility
2:30 AM
Jul 24
79 °FClear.10 mph18%29.77 "Hg10 mi
2:00 AM81 °FClear.10 mph17%29.77 "Hg10 mi
1:30 AM81 °FClear.10 mph17%29.77 "Hg10 mi
1:00 AM81 °FPassing clouds.8 mph17%29.77 "HgN/A
12:30 AM81 °FClear.10 mph17%29.77 "Hg10 mi
12:00 AM81 °FPassing clouds.10 mph17%29.77 "HgN/A
11:30 PM
Jul 23
82 °FClear.10 mph15%29.77 "Hg10 mi
11:00 PM82 °FPassing clouds.8 mph15%29.77 "HgN/A
10:30 PM82 °FClear.8 mph15%29.77 "Hg10 mi
10:00 PM84 °FPassing clouds.10 mph15%29.77 "HgN/A
9:30 PM84 °FPassing clouds.10 mph16%29.77 "HgN/A
9:00 PM86 °FPassing clouds.10 mph15%29.77 "HgN/A
8:30 PM86 °FPassing clouds.8 mph15%29.74 "HgN/A
8:00 PM88 °FPassing clouds.10 mph15%29.74 "HgN/A
7:30 PM88 °FPartly sunny.10 mph15%29.74 "HgN/A
7:00 PM90 °FPartly sunny.13 mph14%29.71 "HgN/A
6:30 PM91 °FPartly sunny.10 mph13%29.71 "HgN/A
6:00 PM91 °FSunny.13 mph13%29.71 "Hg10 mi
5:30 PM91 °FPassing clouds.17 mph13%29.71 "HgN/A
5:00 PM93 °FSunny.15 mph12%29.71 "Hg10 mi
4:30 PM97 °FPassing clouds.8 mph10%29.68 "HgN/A
4:00 PM97 °FSunny.10 mph10%29.68 "Hg10 mi
3:30 PM95 °FSunny.10 mph11%29.68 "Hg10 mi
3:00 PM97 °FPassing clouds.10 mph10%29.68 "HgN/A
2:30 PM97 °FPassing clouds.10 mph9%29.68 "HgN/A
2:00 PM95 °FPassing clouds.10 mph10%29.71 "HgN/A
1:00 PM95 °FPassing clouds.10 mph11%29.71 "HgN/A
10:30 AM84 °FClear.3 mph31%29.74 "Hg3 mi
10:00 AM82 °FClear.3 mph32%29.71 "Hg4 mi
9:30 AM81 °FClear.3 mph34%29.71 "Hg4 mi
9:00 AM79 °FClear.3 mph39%29.71 "Hg4 mi
8:30 AM77 °FClear.3 mph42%29.74 "Hg4 mi
8:00 AM75 °FClear.6 mph41%29.71 "Hg4 mi
7:30 AM73 °FClear.3 mph47%29.71 "Hg4 mi
7:00 AM73 °FSunny.3 mph47%29.71 "Hg10 mi
6:30 AM75 °FSunny.6 mph25%29.71 "Hg10 mi
6:00 AM73 °FSunny.3 mph25%29.71 "Hg10 mi
5:30 AM75 °FPassing clouds.3 mph22%29.71 "HgN/A
4:30 AM75 °FPassing clouds.3 mph22%29.68 "HgN/A
4:00 AM73 °FClear.3 mph23%29.68 "Hg10 mi
Weather by CustomWeather, © 2014

See weather overviewHow to use our weather pages